Time,TemperatureF,DewpointF,PressureIn,WindDirection,WindDirectionDegrees,WindSpeedMPH,WindSpeedGustMPH,Humidity,HourlyPrecipIn,Conditions,Clouds,dailyrainin,SoftwareType,DateUTC
2013-07-08 00:01:00,62.4,56.8,29.77,WSW,239,0.0,0.0,82,0.00,,---,0.00,VWS V14.01,2013-07-08 07:01:00,
2013-07-08 00:11:00,62.1,56.5,29.77,WSW,239,0.0,0.0,82,0.00,,---,0.00,VWS V14.01,2013-07-08 07:11:00,
2013-07-08 00:21:00,61.8,56.2,29.77,WSW,239,0.0,0.0,82,0.00,,---,0.00,VWS V14.01,2013-07-08 07:21:00,
2013-07-08 00:26:00,61.6,56.1,29.77,WSW,239,0.0,0.0,82,0.00,,---,0.00,VWS V14.01,2013-07-08 07:26:00,
2013-07-08 00:31:00,61.5,56.0,29.77,WSW,239,0.0,0.0,82,0.00,,---,0.00,VWS V14.01,2013-07-08 07:31:00,
2013-07-08 00:41:00,61.3,55.8,29.77,WSW,239,0.0,0.0,82,0.00,,---,0.00,VWS V14.01,2013-07-08 07:41:00,
2013-07-08 00:46:00,61.2,55.7,29.77,WSW,239,0.0,0.0,82,0.00,,---,0.00,VWS V14.01,2013-07-08 07:46:00,
2013-07-08 00:56:00,60.9,55.7,29.77,WSW,239,0.0,0.0,83,0.00,,---,0.00,VWS V14.01,2013-07-08 07:56:00,
2013-07-08 01:01:00,60.9,55.7,29.77,WSW,239,0.0,0.0,83,0.00,,---,0.00,VWS V14.01,2013-07-08 08:01:00,
2013-07-08 01:06:00,60.7,55.5,29.77,WSW,239,0.0,0.0,83,0.00,,---,0.00,VWS V14.01,2013-07-08 08:06:00,
2013-07-08 01:16:00,60.5,55.3,29.77,WSW,239,0.0,0.0,83,0.00,,---,0.00,VWS V14.01,2013-07-08 08:16:00,
2013-07-08 01:21:00,60.4,55.2,29.77,WSW,239,0.0,0.0,83,0.00,,---,0.00,VWS V14.01,2013-07-08 08:21:00,
2013-07-08 01:31:00,60.1,54.9,29.77,WSW,239,0.0,0.0,83,0.00,,---,0.00,VWS V14.01,2013-07-08 08:31:00,
2013-07-08 01:36:00,59.9,54.7,29.77,WSW,239,0.0,0.0,83,0.00,,---,0.00,VWS V14.01,2013-07-08 08:36:00,
2013-07-08 01:46:00,59.8,55.0,29.77,WSW,239,0.0,0.0,84,0.00,,---,0.00,VWS V14.01,2013-07-08 08:46:00,
2013-07-08 01:51:00,59.8,55.0,29.77,WSW,239,0.0,0.0,84,0.00,,---,0.00,VWS V14.01,2013-07-08 08:51:00,
2013-07-08 01:56:00,59.6,54.8,29.77,WSW,239,0.0,0.0,84,0.00,,---,0.00,VWS V14.01,2013-07-08 08:56:00,
2013-07-08 02:01:00,59.5,54.7,29.77,WSW,239,0.0,0.0,84,0.00,,---,0.00,VWS V14.01,2013-07-08 09:01:00,
2013-07-08 02:11:00,59.3,54.5,29.77,WSW,239,0.0,0.0,84,0.00,,---,0.00,VWS V14.01,2013-07-08 09:11:00,
2013-07-08 02:21:00,59.2,54.4,29.77,WSW,239,0.0,0.0,84,0.00,,---,0.00,VWS V14.01,2013-07-08 09:21:00,
2013-07-08 02:26:00,59.2,54.7,29.77,WSW,239,0.0,0.0,85,0.00,,---,0.00,VWS V14.01,2013-07-08 09:26:00,
2013-07-08 02:36:00,59.0,54.5,29.77,WSW,239,0.0,0.0,85,0.00,,---,0.00,VWS V14.01,2013-07-08 09:36:00,
2013-07-08 02:46:00,58.7,54.2,29.77,WSW,239,0.0,0.0,85,0.00,,---,0.00,VWS V14.01,2013-07-08 09:46:00,
2013-07-08 02:51:00,58.7,54.2,29.77,WSW,239,0.0,0.0,85,0.00,,---,0.00,VWS V14.01,2013-07-08 09:51:00,
2013-07-08 03:01:00,58.4,53.9,29.77,WSW,239,0.0,0.0,85,0.00,,---,0.00,VWS V14.01,2013-07-08 10:01:00,
2013-07-08 03:06:00,58.3,53.8,29.77,WSW,239,0.0,0.0,85,0.00,,---,0.00,VWS V14.01,2013-07-08 10:06:00,
2013-07-08 03:16:00,58.1,53.9,29.77,WSW,239,0.0,0.0,86,0.00,,---,0.00,VWS V14.01,2013-07-08 10:16:00,
2013-07-08 03:21:00,58.0,53.8,29.77,WSW,239,0.0,0.0,86,0.00,,---,0.00,VWS V14.01,2013-07-08 10:21:00,
2013-07-08 03:31:00,57.8,53.7,29.77,WSW,239,0.0,0.0,86,0.00,,---,0.00,VWS V14.01,2013-07-08 10:31:00,
2013-07-08 03:41:00,57.6,53.5,29.77,WSW,239,0.0,0.0,86,0.00,,---,0.00,VWS V14.01,2013-07-08 10:41:00,
2013-07-08 03:51:00,57.6,53.5,29.77,WSW,239,0.0,0.0,86,0.00,,---,0.00,VWS V14.01,2013-07-08 10:51:00,
2013-07-08 03:56:00,57.6,53.8,29.77,WSW,239,0.0,0.0,87,0.00,,---,0.00,VWS V14.01,2013-07-08 10:56:00,
2013-07-08 04:01:00,57.5,53.7,29.77,WSW,239,0.0,0.0,87,0.00,,---,0.00,VWS V14.01,2013-07-08 11:01:00,
2013-07-08 04:06:00,57.3,53.5,29.77,WSW,239,0.0,0.0,87,0.00,,---,0.00,VWS V14.01,2013-07-08 11:06:00,
2013-07-08 04:16:00,57.2,53.4,29.78,WSW,239,0.0,0.0,87,0.00,,---,0.00,VWS V14.01,2013-07-08 11:16:00,
2013-07-08 04:21:00,57.0,53.2,29.78,WSW,239,0.0,0.0,87,0.00,,---,0.00,VWS V14.01,2013-07-08 11:21:00,
2013-07-08 04:26:00,56.9,53.1,29.78,WSW,239,0.0,0.0,87,0.00,,---,0.00,VWS V14.01,2013-07-08 11:26:00,
2013-07-08 04:36:00,56.7,52.9,29.78,WSW,239,0.0,0.0,87,0.00,,---,0.00,VWS V14.01,2013-07-08 11:36:00,
2013-07-08 04:41:00,56.6,52.8,29.78,WSW,239,0.0,0.0,87,0.00,,---,0.00,VWS V14.01,2013-07-08 11:41:00,
2013-07-08 04:51:00,56.5,52.7,29.78,WSW,239,0.0,0.0,87,0.00,,---,0.00,VWS V14.01,2013-07-08 11:51:00,
2013-07-08 04:56:00,56.3,52.5,29.78,WSW,239,0.0,0.0,87,0.00,,---,0.00,VWS V14.01,2013-07-08 11:56:00,
2013-07-08 05:06:00,56.2,52.7,29.79,WSW,239,0.0,0.0,88,0.00,,---,0.00,VWS V14.01,2013-07-08 12:06:00,
2013-07-08 05:11:00,56.2,52.7,29.79,WSW,239,0.0,0.0,88,0.00,,---,0.00,VWS V14.01,2013-07-08 12:11:00,
2013-07-08 05:21:00,56.0,52.5,29.79,WSW,239,0.0,0.0,88,0.00,,---,0.00,VWS V14.01,2013-07-08 12:21:00,
2013-07-08 05:26:00,55.9,52.4,29.79,WSW,239,0.0,0.0,88,0.00,,---,0.00,VWS V14.01,2013-07-08 12:26:00,
2013-07-08 05:31:00,55.9,52.4,29.79,WSW,239,0.0,0.0,88,0.00,,---,0.00,VWS V14.01,2013-07-08 12:31:00,
2013-07-08 05:36:00,55.9,52.4,29.79,WSW,239,0.0,0.0,88,0.00,,---,0.00,VWS V14.01,2013-07-08 12:36:00,
2013-07-08 05:41:00,56.0,52.5,29.79,WSW,239,0.0,0.0,88,0.00,,---,0.00,VWS V14.01,2013-07-08 12:41:00,
2013-07-08 05:46:00,55.9,52.7,29.79,WSW,239,0.0,0.0,89,0.00,,---,0.00,VWS V14.01,2013-07-08 12:46:00,
2013-07-08 05:51:00,55.9,52.7,29.79,WSW,239,0.0,0.0,89,0.00,,---,0.00,VWS V14.01,2013-07-08 12:51:00,
2013-07-08 05:56:00,55.7,52.5,29.79,WSW,239,0.0,0.0,89,0.00,,---,0.00,VWS V14.01,2013-07-08 12:56:00,
2013-07-08 06:01:00,55.7,52.5,29.80,WSW,239,0.0,0.0,89,0.00,,---,0.00,VWS V14.01,2013-07-08 13:01:00,
2013-07-08 06:11:00,55.7,52.5,29.80,WSW,239,0.0,0.0,89,0.00,,---,0.00,VWS V14.01,2013-07-08 13:11:00,
2013-07-08 06:16:00,55.6,52.4,29.80,WSW,239,0.0,0.0,89,0.00,,---,0.00,VWS V14.01,2013-07-08 13:16:00,
2013-07-08 06:26:00,55.4,52.2,29.80,WSW,239,0.0,0.0,89,0.00,,---,0.00,VWS V14.01,2013-07-08 13:26:00,
2013-07-08 06:31:00,55.4,52.2,29.80,WSW,239,0.0,0.0,89,0.00,,---,0.00,VWS V14.01,2013-07-08 13:31:00,
2013-07-08 06:41:00,55.6,52.4,29.80,WSW,239,0.0,0.0,89,0.00,,---,0.00,VWS V14.01,2013-07-08 13:41:00,
2013-07-08 06:46:00,55.7,52.8,29.81,WSW,239,0.0,0.0,90,0.00,,---,0.00,VWS V14.01,2013-07-08 13:46:00,
2013-07-08 06:56:00,56.0,53.1,29.81,WSW,239,0.0,0.0,90,0.00,,---,0.00,VWS V14.01,2013-07-08 13:56:00,
2013-07-08 07:01:00,56.6,54.0,29.81,WSW,239,0.0,0.0,91,0.00,,---,0.00,VWS V14.01,2013-07-08 14:01:00,
2013-07-08 07:11:00,58.1,55.5,29.81,WSW,239,0.0,0.0,91,0.00,,---,0.00,VWS V14.01,2013-07-08 14:11:00,
2013-07-08 07:16:00,58.4,55.8,29.81,WSW,239,0.0,0.0,91,0.00,,---,0.00,VWS V14.01,2013-07-08 14:16:00,
2013-07-08 07:21:00,58.6,56.0,29.81,WSW,239,0.0,0.0,91,0.00,,---,0.00,VWS V14.01,2013-07-08 14:21:00,
2013-07-08 07:26:00,58.9,56.6,29.81,WSW,239,0.0,0.0,92,0.00,,---,0.00,VWS V14.01,2013-07-08 14:26:00,
2013-07-08 07:31:00,59.2,56.9,29.81,WSW,239,0.0,0.0,92,0.00,,---,0.00,VWS V14.01,2013-07-08 14:31:00,
2013-07-08 07:36:00,59.6,57.3,29.81,WSW,239,0.0,0.0,92,0.00,,---,0.00,VWS V14.01,2013-07-08 14:36:00,
2013-07-08 07:46:00,60.2,57.9,29.82,WSW,239,0.0,0.0,92,0.00,,---,0.00,VWS V14.01,2013-07-08 14:46:00,
2013-07-08 07:51:00,61.0,59.0,29.82,WSW,239,0.0,0.0,93,0.00,,---,0.00,VWS V14.01,2013-07-08 14:51:00,
2013-07-08 08:01:00,62.3,60.2,29.81,WSW,239,0.0,0.0,93,0.00,,---,0.00,VWS V14.01,2013-07-08 15:01:00,
2013-07-08 08:11:00,63.4,61.3,29.81,WSW,239,0.0,0.0,93,0.00,,---,0.00,VWS V14.01,2013-07-08 15:11:00,
2013-07-08 08:16:00,63.7,61.3,29.81,WSW,239,0.0,0.0,92,0.00,,---,0.00,VWS V14.01,2013-07-08 15:16:00,
2013-07-08 08:26:00,65.3,62.0,29.81,WSW,239,0.0,0.0,89,0.00,,---,0.00,VWS V14.01,2013-07-08 15:26:00,
2013-07-08 08:31:00,66.4,62.4,29.82,WSW,239,0.0,0.0,87,0.00,,---,0.00,VWS V14.01,2013-07-08 15:31:00,
2013-07-08 08:36:00,67.6,62.6,29.82,WSW,239,0.0,0.0,84,0.00,,---,0.00,VWS V14.01,2013-07-08 15:36:00,
2013-07-08 08:46:00,69.4,62.6,29.81,WSW,239,0.0,0.0,79,0.00,,---,0.00,VWS V14.01,2013-07-08 15:46:00,
2013-07-08 08:56:00,70.9,61.4,29.81,West,280,0.0,0.0,72,0.00,,---,0.00,VWS V14.01,2013-07-08 15:56:00,
2013-07-08 09:01:00,71.8,61.9,29.81,West,272,0.0,0.0,71,0.00,,---,0.00,VWS V14.01,2013-07-08 16:01:00,
2013-07-08 09:11:00,73.5,61.0,29.81,SSW,193,0.0,0.0,65,0.00,,---,0.00,VWS V14.01,2013-07-08 16:11:00,
2013-07-08 09:16:00,74.0,61.1,29.81,SSW,198,0.0,0.0,64,0.00,,---,0.00,VWS V14.01,2013-07-08 16:16:00,
2013-07-08 09:21:00,74.6,60.7,29.81,SSW,196,0.0,0.0,62,0.00,,---,0.00,VWS V14.01,2013-07-08 16:21:00,
2013-07-08 09:31:00,76.0,60.2,29.81,SSW,196,0.0,0.0,58,0.00,,---,0.00,VWS V14.01,2013-07-08 16:31:00,
2013-07-08 09:36:00,76.3,60.9,29.81,SSW,195,0.0,0.0,59,0.00,,---,0.00,VWS V14.01,2013-07-08 16:36:00,
2013-07-08 09:46:00,77.6,61.2,29.81,SSW,195,0.0,0.0,57,0.00,,---,0.00,VWS V14.01,2013-07-08 16:46:00,
2013-07-08 09:51:00,78.1,60.6,29.81,SSW,195,0.0,0.0,55,0.00,,---,0.00,VWS V14.01,2013-07-08 16:51:00,
2013-07-08 09:56:00,78.5,60.0,29.81,SSW,198,0.0,0.0,53,0.00,,---,0.00,VWS V14.01,2013-07-08 16:56:00,
2013-07-08 10:01:00,79.4,59.7,29.81,SSW,196,0.0,0.0,51,0.00,,---,0.00,VWS V14.01,2013-07-08 17:01:00,
2013-07-08 10:06:00,80.5,61.3,29.81,SSW,196,0.0,0.0,52,0.00,,---,0.00,VWS V14.01,2013-07-08 17:06:00,
2013-07-08 10:16:00,82.4,61.9,29.81,SSE,168,0.0,0.0,50,0.00,,---,0.00,VWS V14.01,2013-07-08 17:16:00,
2013-07-08 10:21:00,82.8,62.3,29.81,SW,229,0.0,0.0,50,0.00,,---,0.00,VWS V14.01,2013-07-08 17:21:00,
2013-07-08 10:31:00,83.2,62.1,29.81,SSW,212,0.0,0.0,49,0.00,,---,0.00,VWS V14.01,2013-07-08 17:31:00,
2013-07-08 10:41:00,83.6,63.0,29.81,SW,230,0.0,0.0,50,0.00,,---,0.00,VWS V14.01,2013-07-08 17:41:00,
2013-07-08 10:46:00,83.2,62.1,29.81,WSW,248,0.0,7.0,49,0.00,,---,0.00,VWS V14.01,2013-07-08 17:46:00,
2013-07-08 11:01:00,82.8,63.9,29.82,WSW,257,0.0,10.0,53,0.00,,---,0.00,VWS V14.01,2013-07-08 18:01:00,
2013-07-08 11:06:00,83.4,64.5,29.82,South,191,1.0,1.0,53,0.00,,---,0.00,VWS V14.01,2013-07-08 18:06:00,
2013-07-08 11:21:00,83.2,63.8,29.82,WSW,239,0.0,6.0,52,0.00,,---,0.00,VWS V14.01,2013-07-08 18:21:00,
2013-07-08 11:26:00,84.0,63.4,29.82,WSW,247,0.0,2.0,50,0.00,,---,0.00,VWS V14.01,2013-07-08 18:26:00,
2013-07-08 11:31:00,84.9,63.6,29.82,WSW,240,0.0,1.0,49,0.00,,---,0.00,VWS V14.01,2013-07-08 18:31:00,
2013-07-08 11:41:00,85.1,63.2,29.82,SSW,208,0.0,7.0,48,0.00,,---,0.00,VWS V14.01,2013-07-08 18:41:00,
2013-07-08 11:56:00,84.7,63.5,29.82,SW,222,1.0,7.0,49,0.00,,---,0.00,VWS V14.01,2013-07-08 18:56:00,
2013-07-08 12:01:00,84.9,63.6,29.82,WNW,285,0.0,7.0,49,0.00,,---,0.00,VWS V14.01,2013-07-08 19:01:00,
2013-07-08 12:06:00,85.3,63.4,29.82,SW,236,0.0,4.0,48,0.00,,---,0.00,VWS V14.01,2013-07-08 19:06:00,
2013-07-08 12:26:00,86.3,64.3,29.82,WSW,248,0.0,8.0,48,0.00,,---,0.00,VWS V14.01,2013-07-08 19:26:00,
2013-07-08 12:36:00,87.8,62.5,29.81,WNW,291,1.0,10.0,43,0.00,,---,0.00,VWS V14.01,2013-07-08 19:36:00,
2013-07-08 12:41:00,87.8,62.5,29.81,SW,215,0.0,6.0,43,0.00,,---,0.00,VWS V14.01,2013-07-08 19:41:00,
2013-07-08 12:51:00,88.2,63.6,29.81,West,281,0.0,6.0,44,0.00,,---,0.00,VWS V14.01,2013-07-08 19:51:00,
2013-07-08 12:56:00,88.8,62.1,29.81,West,281,0.0,5.0,41,0.00,,---,0.00,VWS V14.01,2013-07-08 19:56:00,
2013-07-08 13:01:00,88.4,61.0,29.81,SSW,196,1.0,10.0,40,0.00,,---,0.00,VWS V14.01,2013-07-08 20:01:00,
2013-07-08 13:11:00,89.0,62.3,29.81,SSW,203,0.0,7.0,41,0.00,,---,0.00,VWS V14.01,2013-07-08 20:11:00,
2013-07-08 13:21:00,89.7,62.9,29.81,SSW,198,0.0,5.0,41,0.00,,---,0.00,VWS V14.01,2013-07-08 20:21:00,
2013-07-08 13:31:00,90.3,63.4,29.80,SW,223,0.0,8.0,41,0.00,,---,0.00,VWS V14.01,2013-07-08 20:31:00,
2013-07-08 13:36:00,90.3,64.1,29.80,SSW,209,0.0,7.0,42,0.00,,---,0.00,VWS V14.01,2013-07-08 20:36:00,
2013-07-08 13:46:00,90.7,63.8,29.80,WSW,250,2.0,8.0,41,0.00,,---,0.00,VWS V14.01,2013-07-08 20:46:00,
2013-07-08 13:51:00,90.3,63.4,29.80,WSW,240,0.0,5.0,41,0.00,,---,0.00,VWS V14.01,2013-07-08 20:51:00,
2013-07-08 13:56:00,91.0,64.1,29.80,WSW,254,0.0,6.0,41,0.00,,---,0.00,VWS V14.01,2013-07-08 20:56:00,
2013-07-08 14:06:00,91.6,63.9,29.80,SW,227,0.0,7.0,40,0.00,,---,0.00,VWS V14.01,2013-07-08 21:06:00,
2013-07-08 14:21:00,92.5,61.7,29.80,SW,236,2.0,11.0,36,0.00,,---,0.00,VWS V14.01,2013-07-08 21:21:00,
2013-07-08 14:26:00,92.5,62.5,29.80,SW,223,1.0,10.0,37,0.00,,---,0.00,VWS V14.01,2013-07-08 21:26:00,
2013-07-08 14:41:00,91.6,62.4,29.80,SSW,199,0.0,10.0,38,0.00,,---,0.00,VWS V14.01,2013-07-08 21:41:00,
2013-07-08 14:56:00,90.3,62.0,29.80,South,185,0.0,6.0,39,0.00,,---,0.00,VWS V14.01,2013-07-08 21:56:00,
2013-07-08 15:01:00,90.1,61.1,29.80,SW,222,0.0,9.0,38,0.00,,---,0.00,VWS V14.01,2013-07-08 22:01:00,
2013-07-08 15:11:00,89.7,60.0,29.80,SW,220,0.0,7.0,37,0.00,,---,0.00,VWS V14.01,2013-07-08 22:11:00,
2013-07-08 15:16:00,90.1,60.3,29.80,West,274,0.0,8.0,37,0.00,,---,0.00,VWS V14.01,2013-07-08 22:16:00,
2013-07-08 15:36:00,89.5,59.8,29.79,WSW,256,1.0,11.0,37,0.00,,---,0.00,VWS V14.01,2013-07-08 22:36:00,
2013-07-08 15:46:00,89.7,60.7,29.79,SW,222,0.0,11.0,38,0.00,,---,0.00,VWS V14.01,2013-07-08 22:46:00,
2013-07-08 15:56:00,88.4,61.7,29.79,SW,232,1.0,10.0,41,0.00,,---,0.00,VWS V14.01,2013-07-08 22:56:00,
2013-07-08 16:06:00,89.5,62.7,29.79,SSW,202,0.0,8.0,41,0.00,,---,0.00,VWS V14.01,2013-07-08 23:06:00,
2013-07-08 16:11:00,88.4,61.7,29.79,WSW,253,1.0,4.0,41,0.00,,---,0.00,VWS V14.01,2013-07-08 23:11:00,
2013-07-08 16:16:00,87.2,61.3,29.79,WNW,292,6.0,8.0,42,0.00,,---,0.00,VWS V14.01,2013-07-08 23:16:00,
2013-07-08 16:26:00,87.6,62.4,29.79,WSW,243,0.0,1.0,43,0.00,,---,0.00,VWS V14.01,2013-07-08 23:26:00,
2013-07-08 16:31:00,87.6,62.4,29.79,SW,229,0.0,1.0,43,0.00,,---,0.00,VWS V14.01,2013-07-08 23:31:00,
2013-07-08 16:56:00,86.5,62.7,29.79,SW,219,0.0,7.0,45,0.00,,---,0.00,VWS V14.01,2013-07-08 23:56:00,
2013-07-08 17:01:00,86.7,62.2,29.79,SSW,199,0.0,5.0,44,0.00,,---,0.00,VWS V14.01,2013-07-09 00:01:00,
2013-07-08 17:11:00,85.9,62.1,29.79,SSW,202,0.0,8.0,45,0.00,,---,0.00,VWS V14.01,2013-07-09 00:11:00,
2013-07-08 17:21:00,85.1,62.0,29.79,WSW,254,0.0,4.0,46,0.00,,---,0.00,VWS V14.01,2013-07-09 00:21:00,
2013-07-08 17:26:00,85.3,62.2,29.79,West,263,0.0,5.0,46,0.00,,---,0.00,VWS V14.01,2013-07-09 00:26:00,
2013-07-08 17:41:00,86.1,62.9,29.78,South,191,0.0,2.0,46,0.00,,---,0.00,VWS V14.01,2013-07-09 00:41:00,
2013-07-08 17:46:00,86.3,63.1,29.78,SW,219,6.0,6.0,46,0.00,,---,0.00,VWS V14.01,2013-07-09 00:46:00,
2013-07-08 18:01:00,85.5,63.0,29.78,WSW,257,0.0,6.0,47,0.00,,---,0.00,VWS V14.01,2013-07-09 01:01:00,
2013-07-08 18:11:00,84.5,62.7,29.78,SW,234,0.0,5.0,48,0.00,,---,0.00,VWS V14.01,2013-07-09 01:11:00,
2013-07-08 18:36:00,82.2,62.3,29.79,SW,219,0.0,7.0,51,0.00,,---,0.00,VWS V14.01,2013-07-09 01:36:00,
2013-07-08 18:41:00,81.6,62.3,29.79,West,261,0.0,5.0,52,0.00,,---,0.00,VWS V14.01,2013-07-09 01:41:00,
2013-07-08 18:46:00,81.1,62.4,29.80,West,265,0.0,0.0,53,0.00,,---,0.00,VWS V14.01,2013-07-09 01:46:00,
2013-07-08 18:51:00,80.5,62.3,29.80,West,272,0.0,4.0,54,0.00,,---,0.00,VWS V14.01,2013-07-09 01:51:00,
2013-07-08 19:01:00,79.9,62.3,29.81,West,261,0.0,0.0,55,0.00,,---,0.00,VWS V14.01,2013-07-09 02:01:00,
2013-07-08 19:06:00,79.8,62.2,29.81,West,261,0.0,0.0,55,0.00,,---,0.00,VWS V14.01,2013-07-09 02:06:00,
2013-07-08 19:16:00,79.6,62.5,29.80,West,261,0.0,0.0,56,0.00,,---,0.00,VWS V14.01,2013-07-09 02:16:00,
2013-07-08 19:21:00,79.2,62.2,29.80,West,261,0.0,0.0,56,0.00,,---,0.00,VWS V14.01,2013-07-09 02:21:00,
2013-07-08 19:31:00,78.1,62.1,29.80,West,261,0.0,0.0,58,0.00,,---,0.00,VWS V14.01,2013-07-09 02:31:00,
2013-07-08 19:41:00,76.7,61.8,29.80,West,263,0.0,0.0,60,0.00,,---,0.00,VWS V14.01,2013-07-09 02:41:00,
2013-07-08 19:46:00,76.3,61.4,29.80,West,263,0.0,0.0,60,0.00,,---,0.00,VWS V14.01,2013-07-09 02:46:00,
2013-07-08 19:51:00,76.1,61.7,29.80,West,263,0.0,0.0,61,0.00,,---,0.00,VWS V14.01,2013-07-09 02:51:00,
2013-07-08 20:06:00,75.3,61.4,29.81,West,263,0.0,0.0,62,0.00,,---,0.00,VWS V14.01,2013-07-09 03:06:00,
2013-07-08 20:21:00,74.6,61.2,29.80,West,263,0.0,0.0,63,0.00,,---,0.00,VWS V14.01,2013-07-09 03:21:00,
2013-07-08 20:26:00,74.2,60.8,29.80,West,263,0.0,0.0,63,0.00,,---,0.00,VWS V14.01,2013-07-09 03:26:00,
2013-07-08 20:36:00,73.5,60.6,29.81,West,263,0.0,0.0,64,0.00,,---,0.00,VWS V14.01,2013-07-09 03:36:00,
2013-07-08 20:46:00,72.8,60.4,29.82,West,263,0.0,0.0,65,0.00,,---,0.00,VWS V14.01,2013-07-09 03:46:00,
2013-07-08 20:51:00,72.5,60.1,29.82,West,263,0.0,0.0,65,0.00,,---,0.00,VWS V14.01,2013-07-09 03:51:00,
2013-07-08 21:06:00,71.5,60.0,29.82,West,263,0.0,0.0,67,0.00,,---,0.00,VWS V14.01,2013-07-09 04:06:00,
2013-07-08 21:11:00,71.1,59.6,29.82,West,263,0.0,0.0,67,0.00,,---,0.00,VWS V14.01,2013-07-09 04:11:00,
2013-07-08 21:16:00,70.8,59.7,29.82,West,263,0.0,0.0,68,0.00,,---,0.00,VWS V14.01,2013-07-09 04:16:00,
2013-07-08 21:21:00,70.4,59.3,29.82,West,263,0.0,0.0,68,0.00,,---,0.00,VWS V14.01,2013-07-09 04:21:00,
2013-07-08 21:26:00,70.3,59.2,29.82,West,263,0.0,0.0,68,0.00,,---,0.00,VWS V14.01,2013-07-09 04:26:00,
2013-07-08 21:31:00,69.9,59.3,29.83,West,263,0.0,0.0,69,0.00,,---,0.00,VWS V14.01,2013-07-09 04:31:00,
2013-07-08 21:36:00,69.6,59.0,29.83,West,263,0.0,0.0,69,0.00,,---,0.00,VWS V14.01,2013-07-09 04:36:00,
2013-07-08 21:41:00,69.3,59.1,29.83,West,263,0.0,0.0,70,0.00,,---,0.00,VWS V14.01,2013-07-09 04:41:00,
2013-07-08 21:51:00,68.8,58.6,29.83,West,263,0.0,0.0,70,0.00,,---,0.00,VWS V14.01,2013-07-09 04:51:00,
2013-07-08 21:56:00,68.4,58.6,29.83,West,263,0.0,0.0,71,0.00,,---,0.00,VWS V14.01,2013-07-09 04:56:00,
2013-07-08 22:01:00,68.1,58.3,29.83,West,263,0.0,0.0,71,0.00,,---,0.00,VWS V14.01,2013-07-09 05:01:00,
2013-07-08 22:06:00,67.8,58.1,29.83,West,263,0.0,0.0,71,0.00,,---,0.00,VWS V14.01,2013-07-09 05:06:00,
2013-07-08 22:16:00,67.3,58.0,29.83,West,263,0.0,0.0,72,0.00,,---,0.00,VWS V14.01,2013-07-09 05:16:00,
2013-07-08 22:26:00,66.8,58.3,29.83,West,263,0.0,0.0,74,0.00,,---,0.00,VWS V14.01,2013-07-09 05:26:00,
2013-07-08 22:31:00,66.4,57.9,29.83,West,263,0.0,0.0,74,0.00,,---,0.00,VWS V14.01,2013-07-09 05:31:00,
2013-07-08 22:36:00,66.3,57.8,29.83,West,263,0.0,0.0,74,0.00,,---,0.00,VWS V14.01,2013-07-09 05:36:00,
2013-07-08 22:46:00,65.8,57.7,29.83,West,263,0.0,0.0,75,0.00,,---,0.00,VWS V14.01,2013-07-09 05:46:00,
2013-07-08 22:56:00,65.5,57.4,29.83,West,263,0.0,0.0,75,0.00,,---,0.00,VWS V14.01,2013-07-09 05:56:00,
2013-07-08 23:01:00,65.3,57.2,29.83,West,263,0.0,0.0,75,0.00,,---,0.00,VWS V14.01,2013-07-09 06:01:00,
2013-07-08 23:06:00,65.2,57.5,29.83,West,263,0.0,0.0,76,0.00,,---,0.00,VWS V14.01,2013-07-09 06:06:00,
2013-07-08 23:16:00,65.0,57.3,29.83,West,263,0.0,0.0,76,0.00,,---,0.00,VWS V14.01,2013-07-09 06:16:00,
2013-07-08 23:21:00,64.8,57.1,29.83,West,263,0.0,0.0,76,0.00,,---,0.00,VWS V14.01,2013-07-09 06:21:00,
2013-07-08 23:26:00,64.7,57.3,29.83,West,263,0.0,0.0,77,0.00,,---,0.00,VWS V14.01,2013-07-09 06:26:00,
2013-07-08 23:36:00,64.3,57.0,29.83,West,263,0.0,0.0,77,0.00,,---,0.00,VWS V14.01,2013-07-09 06:36:00,
2013-07-08 23:46:00,64.0,57.0,29.83,West,263,0.0,0.0,78,0.00,,---,0.00,VWS V14.01,2013-07-09 06:46:00,
2013-07-08 23:51:00,63.9,56.9,29.83,West,263,0.0,0.0,78,0.00,,---,0.00,VWS V14.01,2013-07-09 06:51:00,
2013-07-08 23:56:00,63.7,56.7,29.83,West,263,0.0,0.0,78,0.00,,---,0.00,VWS V14.01,2013-07-09 06:56:00,